Year,Month,Day,Hour,Minute,Value (Times are PST for temperature in C)
2010,09,29,07,40,8.90
2010,09,29,07,41,8.90
2010,09,29,07,42,8.90
2010,09,29,07,43,8.90
2010,09,29,07,44,8.90
2010,09,29,07,45,9.00
2010,09,29,07,46,9.00
2010,09,29,07,47,9.10
2010,09,29,07,48,9.10
2010,09,29,07,49,9.20
2010,09,29,07,50,9.20
2010,09,29,07,51,9.20
2010,09,29,07,52,9.30
2010,09,29,07,53,9.30
2010,09,29,07,54,9.40
2010,09,29,07,55,9.40
2010,09,29,07,56,9.50
2010,09,29,07,57,9.50
2010,09,29,07,58,9.50
2010,09,29,07,59,9.50
2010,09,29,08,00,9.50
2010,09,29,08,01,9.50
2010,09,29,08,02,9.60
2010,09,29,08,03,9.60
2010,09,29,08,04,9.60
2010,09,29,08,05,9.60
2010,09,29,08,06,9.60
2010,09,29,08,07,9.70
2010,09,29,08,08,9.70
2010,09,29,08,09,9.80
2010,09,29,08,10,9.80
2010,09,29,08,11,9.90
2010,09,29,08,12,10.00
2010,09,29,08,13,10.10
2010,09,29,08,14,10.20
2010,09,29,08,15,10.20
2010,09,29,08,16,10.30
2010,09,29,08,17,10.30
2010,09,29,08,18,10.40
2010,09,29,08,19,10.40
2010,09,29,08,20,10.50
2010,09,29,08,21,10.50
2010,09,29,08,22,10.60
2010,09,29,08,23,10.60
2010,09,29,08,24,10.70
2010,09,29,08,25,10.70
2010,09,29,08,26,10.80
2010,09,29,08,27,10.80
2010,09,29,08,28,10.80
2010,09,29,08,29,10.90
2010,09,29,08,30,10.90
2010,09,29,08,31,11.00
2010,09,29,08,32,11.00
2010,09,29,08,33,11.10
2010,09,29,08,34,11.20
2010,09,29,08,35,11.20
2010,09,29,08,36,11.30
2010,09,29,08,37,11.30
2010,09,29,08,38,11.40
2010,09,29,08,39,11.50
2010,09,29,08,40,11.50
2010,09,29,08,41,11.60
2010,09,29,08,42,11.60
2010,09,29,08,43,11.70
2010,09,29,08,44,11.70
2010,09,29,08,45,11.80
2010,09,29,08,46,11.80
2010,09,29,08,47,11.90
2010,09,29,08,48,12.00
2010,09,29,08,49,12.10
2010,09,29,08,50,12.10
2010,09,29,08,51,12.10
2010,09,29,08,52,12.20
2010,09,29,08,53,12.30
2010,09,29,08,54,12.30
2010,09,29,08,55,12.30
2010,09,29,08,56,12.30
2010,09,29,08,57,12.30
2010,09,29,08,58,12.30
2010,09,29,08,59,12.40
2010,09,29,09,00,12.40
2010,09,29,09,01,12.40
2010,09,29,09,02,12.50
2010,09,29,09,03,12.50
2010,09,29,09,04,12.60
2010,09,29,09,05,12.60
2010,09,29,09,06,12.70
2010,09,29,09,07,12.70
2010,09,29,09,08,12.80
2010,09,29,09,09,12.80
2010,09,29,09,10,12.90
2010,09,29,09,11,12.90
2010,09,29,09,12,13.00
2010,09,29,09,13,13.10
2010,09,29,09,14,13.10
2010,09,29,09,15,13.20
2010,09,29,09,16,13.20
2010,09,29,09,17,13.30
2010,09,29,09,18,13.30
2010,09,29,09,19,13.30
2010,09,29,09,20,13.30
2010,09,29,09,21,13.40
2010,09,29,09,22,13.50
2010,09,29,09,23,13.50
2010,09,29,09,24,13.60
2010,09,29,09,25,13.60
2010,09,29,09,26,13.60
2010,09,29,09,27,13.60
2010,09,29,09,28,13.60
2010,09,29,09,29,13.60
2010,09,29,09,30,13.70
2010,09,29,09,31,13.80
2010,09,29,09,32,13.80
2010,09,29,09,33,13.90
2010,09,29,09,34,14.00
2010,09,29,09,35,14.10
2010,09,29,09,36,14.10
2010,09,29,09,37,14.20
2010,09,29,09,38,14.30
2010,09,29,09,39,14.30
2010,09,29,09,40,14.40
2010,09,29,09,41,14.40
2010,09,29,09,42,14.40
2010,09,29,09,43,14.50
2010,09,29,09,44,14.60
2010,09,29,09,45,14.60
2010,09,29,09,46,14.60
2010,09,29,09,47,14.60
2010,09,29,09,48,14.60
2010,09,29,09,49,14.60
2010,09,29,09,50,14.70
2010,09,29,09,51,14.70
2010,09,29,09,52,14.80
2010,09,29,09,53,15.00
2010,09,29,09,54,15.00
2010,09,29,09,55,15.00
2010,09,29,09,56,15.00
2010,09,29,09,57,15.00
2010,09,29,09,58,15.00
2010,09,29,09,59,15.00
2010,09,29,10,00,15.00
2010,09,29,10,01,15.00
2010,09,29,10,02,15.00
2010,09,29,10,03,15.00
2010,09,29,10,04,15.10
2010,09,29,10,05,15.20
2010,09,29,10,06,15.30
2010,09,29,10,07,15.30
2010,09,29,10,08,15.30
2010,09,29,10,09,15.30
2010,09,29,10,10,15.30
2010,09,29,10,11,15.30
2010,09,29,10,12,15.30
2010,09,29,10,13,15.30
2010,09,29,10,14,15.30
2010,09,29,10,15,15.30
2010,09,29,10,16,15.30
2010,09,29,10,17,15.20
2010,09,29,10,18,15.20
2010,09,29,10,19,15.20
2010,09,29,10,20,15.20
2010,09,29,10,21,15.20
2010,09,29,10,22,15.20
2010,09,29,10,23,15.30
2010,09,29,10,24,15.30
2010,09,29,10,25,15.40
2010,09,29,10,26,15.40
2010,09,29,10,27,15.40
2010,09,29,10,28,15.50
2010,09,29,10,29,15.50
2010,09,29,10,30,15.60
2010,09,29,10,31,15.60
2010,09,29,10,32,15.60
2010,09,29,10,33,15.70
2010,09,29,10,34,15.70
2010,09,29,10,35,15.60
2010,09,29,10,36,15.50
2010,09,29,10,37,15.50
2010,09,29,10,38,15.40
2010,09,29,10,39,15.40
2010,09,29,10,40,15.40
2010,09,29,10,41,15.40
2010,09,29,10,42,15.40
2010,09,29,10,43,15.30
2010,09,29,10,44,15.20
2010,09,29,10,45,15.20
2010,09,29,10,46,15.10
2010,09,29,10,47,15.10
2010,09,29,10,48,15.20
2010,09,29,10,49,15.20
2010,09,29,10,50,15.20
2010,09,29,10,51,15.20
2010,09,29,10,52,15.20
2010,09,29,10,53,15.30
2010,09,29,10,54,15.30
2010,09,29,10,55,15.30
2010,09,29,10,56,15.30
2010,09,29,10,57,15.20
2010,09,29,10,58,15.20
2010,09,29,10,59,15.10
2010,09,29,11,00,15.10
2010,09,29,11,01,15.10
2010,09,29,11,02,15.10
2010,09,29,11,03,15.20
2010,09,29,11,04,15.20
2010,09,29,11,05,15.20
2010,09,29,11,06,15.30
2010,09,29,11,07,15.30
2010,09,29,11,08,15.20
2010,09,29,11,09,15.10
2010,09,29,11,10,15.00
2010,09,29,11,11,15.00
2010,09,29,11,12,15.00
2010,09,29,11,13,15.00
2010,09,29,11,14,15.00
2010,09,29,11,15,15.00
2010,09,29,11,16,15.00
2010,09,29,11,17,15.00
2010,09,29,11,18,15.00
2010,09,29,11,19,15.00
2010,09,29,11,20,15.00
2010,09,29,11,21,15.00
2010,09,29,11,22,15.00
2010,09,29,11,23,15.00
2010,09,29,11,24,15.00
2010,09,29,11,25,15.10
2010,09,29,11,26,15.20
2010,09,29,11,27,15.20
2010,09,29,11,28,15.30
2010,09,29,11,29,15.30
2010,09,29,11,30,15.30
2010,09,29,11,31,15.30
2010,09,29,11,32,15.40
2010,09,29,11,33,15.40
2010,09,29,11,34,15.40
2010,09,29,11,35,15.40
2010,09,29,11,36,15.40
2010,09,29,11,37,15.40
2010,09,29,11,38,15.50
2010,09,29,11,39,15.60
2010,09,29,11,40,15.60
2010,09,29,11,41,15.70
2010,09,29,11,42,15.80
2010,09,29,11,43,15.90
2010,09,29,11,44,16.00
2010,09,29,11,45,16.10
2010,09,29,11,46,16.10
2010,09,29,11,47,16.10
2010,09,29,11,48,16.20
2010,09,29,11,49,16.30
2010,09,29,11,50,16.40
2010,09,29,11,51,16.50
2010,09,29,11,52,16.50
2010,09,29,11,53,16.50
2010,09,29,11,54,16.50
2010,09,29,11,55,16.50
2010,09,29,11,56,16.50
2010,09,29,11,57,16.60
2010,09,29,11,58,16.60
2010,09,29,11,59,16.70
2010,09,29,12,00,16.70
2010,09,29,12,01,16.70
2010,09,29,12,02,16.60
2010,09,29,12,03,16.50
2010,09,29,12,04,16.40
2010,09,29,12,05,16.30
2010,09,29,12,06,16.30
2010,09,29,12,07,16.30
2010,09,29,12,08,16.30
2010,09,29,12,09,16.30
2010,09,29,12,10,16.30
2010,09,29,12,11,16.20
2010,09,29,12,12,16.20
2010,09,29,12,13,16.20
2010,09,29,12,14,16.20
2010,09,29,12,15,16.10
2010,09,29,12,16,16.10
2010,09,29,12,17,16.10
2010,09,29,12,18,16.00
2010,09,29,12,19,15.90
2010,09,29,12,20,15.90
2010,09,29,12,21,15.90
2010,09,29,12,22,15.90
2010,09,29,12,23,15.90
2010,09,29,12,24,15.90
2010,09,29,12,25,15.90
2010,09,29,12,26,15.90
2010,09,29,12,27,15.90
2010,09,29,12,28,15.90
2010,09,29,12,29,15.80
2010,09,29,12,30,15.70
2010,09,29,12,31,15.70
2010,09,29,12,32,15.60
2010,09,29,12,33,15.60
2010,09,29,12,34,15.60
2010,09,29,12,35,15.60
2010,09,29,12,36,15.60
2010,09,29,12,37,15.50
2010,09,29,12,38,15.50
2010,09,29,12,39,15.40
2010,09,29,12,40,15.40
2010,09,29,12,41,15.30
2010,09,29,12,42,15.30
2010,09,29,12,43,15.30
2010,09,29,12,44,15.40
2010,09,29,12,45,15.50
2010,09,29,12,46,15.50
2010,09,29,12,47,15.50
2010,09,29,12,48,15.60
2010,09,29,12,49,15.60
2010,09,29,12,50,15.60
2010,09,29,12,51,15.60
2010,09,29,12,52,15.60
2010,09,29,12,53,15.70
2010,09,29,12,54,15.70
2010,09,29,12,55,15.70
2010,09,29,12,56,15.70
2010,09,29,12,57,15.70
2010,09,29,12,58,15.70
2010,09,29,12,59,15.60
2010,09,29,13,00,15.50
2010,09,29,13,01,15.20
2010,09,29,13,02,15.00
2010,09,29,13,03,14.70
2010,09,29,13,04,14.50
2010,09,29,13,05,14.30
2010,09,29,13,06,14.20
2010,09,29,13,07,14.00
2010,09,29,13,08,13.90
2010,09,29,13,09,13.90
2010,09,29,13,10,13.80
2010,09,29,13,11,13.70
2010,09,29,13,12,13.70
2010,09,29,13,13,13.60
2010,09,29,13,14,13.50
2010,09,29,13,15,13.50
2010,09,29,13,16,13.40
2010,09,29,13,17,13.40
2010,09,29,13,18,13.40
2010,09,29,13,19,13.30
2010,09,29,13,20,13.30
2010,09,29,13,21,13.30
2010,09,29,13,22,13.30
2010,09,29,13,23,13.20
2010,09,29,13,24,13.20
2010,09,29,13,25,13.20
2010,09,29,13,26,13.20
2010,09,29,13,27,13.20
2010,09,29,13,28,13.30
2010,09,29,13,29,13.40
2010,09,29,13,30,13.40
2010,09,29,13,31,13.50
2010,09,29,13,32,13.50
2010,09,29,13,33,13.60
2010,09,29,13,34,13.60
2010,09,29,13,35,13.70
2010,09,29,13,36,13.70
2010,09,29,13,37,13.80
2010,09,29,13,38,13.90
2010,09,29,13,39,13.90
2010,09,29,13,40,13.90
2010,09,29,13,41,13.80
2010,09,29,13,42,13.80
2010,09,29,13,43,13.70
2010,09,29,13,44,13.70
2010,09,29,13,45,13.60
2010,09,29,13,46,13.60
2010,09,29,13,47,13.60
2010,09,29,13,48,13.60
2010,09,29,13,49,13.60
2010,09,29,13,50,13.70
2010,09,29,13,51,13.80
2010,09,29,13,52,14.00
2010,09,29,13,53,14.10
2010,09,29,13,54,14.20
2010,09,29,13,55,14.40
2010,09,29,13,56,14.60
2010,09,29,13,57,14.80
2010,09,29,13,58,15.00
2010,09,29,13,59,15.20
2010,09,29,14,00,15.50
2010,09,29,14,01,15.70
2010,09,29,14,02,15.90
2010,09,29,14,03,16.10
2010,09,29,14,04,16.20
2010,09,29,14,05,16.30
2010,09,29,14,06,16.30
2010,09,29,14,07,16.40
2010,09,29,14,08,16.50
2010,09,29,14,09,16.50
2010,09,29,14,10,16.60
2010,09,29,14,11,16.70
2010,09,29,14,12,16.80
2010,09,29,14,13,16.90
2010,09,29,14,14,16.90
2010,09,29,14,15,16.90
2010,09,29,14,16,16.90
2010,09,29,14,17,17.00
2010,09,29,14,18,17.10
2010,09,29,14,19,17.20
2010,09,29,14,20,17.20
2010,09,29,14,21,17.30
2010,09,29,14,22,17.40
2010,09,29,14,23,17.50
2010,09,29,14,24,17.60
2010,09,29,14,25,17.70
2010,09,29,14,26,17.80
2010,09,29,14,27,17.80
2010,09,29,14,28,17.90
2010,09,29,14,29,17.90
2010,09,29,14,30,17.80
2010,09,29,14,31,17.70
2010,09,29,14,32,17.60
2010,09,29,14,33,17.50
2010,09,29,14,34,17.40
2010,09,29,14,35,17.30
2010,09,29,14,36,17.30
2010,09,29,14,37,17.30
2010,09,29,14,38,17.20
2010,09,29,14,39,17.20
2010,09,29,14,40,17.10
2010,09,29,14,41,17.10
2010,09,29,14,42,17.00
2010,09,29,14,43,17.00
2010,09,29,14,44,16.90
2010,09,29,14,45,16.80
2010,09,29,14,46,16.80
2010,09,29,14,47,16.80
2010,09,29,14,48,16.80
2010,09,29,14,49,16.70
2010,09,29,14,50,16.70
2010,09,29,14,51,16.60
2010,09,29,14,52,16.60
2010,09,29,14,53,16.50
2010,09,29,14,54,16.50
2010,09,29,14,55,16.40
2010,09,29,14,56,16.40
2010,09,29,14,57,16.40
2010,09,29,14,58,16.40
2010,09,29,14,59,16.40
2010,09,29,15,00,16.40
2010,09,29,15,01,16.50
2010,09,29,15,02,16.50
2010,09,29,15,03,16.50
2010,09,29,15,04,16.50
2010,09,29,15,05,16.60
2010,09,29,15,06,16.50
2010,09,29,15,07,16.50
2010,09,29,15,08,16.50
2010,09,29,15,09,16.60
2010,09,29,15,10,16.60
2010,09,29,15,11,16.60
2010,09,29,15,12,16.60
2010,09,29,15,13,16.50
2010,09,29,15,14,16.40
2010,09,29,15,15,16.40
2010,09,29,15,16,16.40
2010,09,29,15,17,16.40
2010,09,29,15,18,16.30
2010,09,29,15,19,16.40
2010,09,29,15,20,16.40
2010,09,29,15,21,16.40
2010,09,29,15,22,16.20
2010,09,29,15,23,16.10
2010,09,29,15,24,16.00
2010,09,29,15,25,15.90
2010,09,29,15,26,15.80
2010,09,29,15,27,15.70
2010,09,29,15,28,15.60
2010,09,29,15,29,15.50
2010,09,29,15,30,15.50
2010,09,29,15,31,15.60
2010,09,29,15,32,15.60
2010,09,29,15,33,15.60
2010,09,29,15,34,15.60
2010,09,29,15,35,15.70
2010,09,29,15,36,15.80
2010,09,29,15,37,15.90
2010,09,29,15,38,16.00
2010,09,29,15,39,16.10
2010,09,29,15,40,16.20
2010,09,29,15,41,16.30
2010,09,29,15,42,16.30
2010,09,29,15,43,16.40
2010,09,29,15,44,16.50
2010,09,29,15,45,16.60
2010,09,29,15,46,16.60
2010,09,29,15,47,16.60
2010,09,29,15,48,16.50
2010,09,29,15,49,16.40
2010,09,29,15,50,16.20
2010,09,29,15,51,16.00
2010,09,29,15,52,15.70
2010,09,29,15,53,15.40
2010,09,29,15,54,15.20
2010,09,29,15,55,15.00
2010,09,29,15,56,15.00
2010,09,29,15,57,15.00
2010,09,29,15,58,14.90
2010,09,29,15,59,14.80
2010,09,29,16,00,14.70
2010,09,29,16,01,14.70
2010,09,29,16,02,14.60
2010,09,29,16,03,14.60
2010,09,29,16,04,14.60
2010,09,29,16,05,14.60
2010,09,29,16,06,14.60
2010,09,29,16,07,14.60
2010,09,29,16,08,14.60
2010,09,29,16,09,14.60
2010,09,29,16,10,14.60
2010,09,29,16,11,14.70
2010,09,29,16,12,14.70
2010,09,29,16,13,14.70
2010,09,29,16,14,14.70
2010,09,29,16,15,14.80
2010,09,29,16,16,14.80
2010,09,29,16,17,14.80
2010,09,29,16,18,14.80
2010,09,29,16,19,14.80
2010,09,29,16,20,14.80
2010,09,29,16,21,14.80
2010,09,29,16,22,14.90
2010,09,29,16,23,14.90
2010,09,29,16,24,14.90
2010,09,29,16,25,14.90
2010,09,29,16,26,14.80
2010,09,29,16,27,14.80
2010,09,29,16,28,14.80
2010,09,29,16,29,14.80
2010,09,29,16,30,14.80
2010,09,29,16,31,14.80
2010,09,29,16,32,14.80
2010,09,29,16,33,14.80
2010,09,29,16,34,14.80
2010,09,29,16,35,14.80
2010,09,29,16,36,14.80
2010,09,29,16,37,14.70
2010,09,29,16,38,14.70
2010,09,29,16,39,14.70
2010,09,29,16,40,14.70
2010,09,29,16,41,14.70
2010,09,29,16,42,14.70
2010,09,29,16,43,14.70
2010,09,29,16,44,14.60
2010,09,29,16,45,14.60
2010,09,29,16,46,14.60
2010,09,29,16,47,14.60
2010,09,29,16,48,14.60
2010,09,29,16,49,14.60
2010,09,29,16,50,14.60
2010,09,29,16,51,14.70
2010,09,29,16,52,14.70
2010,09,29,16,53,14.80
2010,09,29,16,54,14.80
2010,09,29,16,55,14.90
2010,09,29,16,56,15.00
2010,09,29,16,57,15.00
2010,09,29,16,58,15.00
2010,09,29,16,59,15.00
2010,09,29,17,00,15.00
2010,09,29,17,01,15.10
2010,09,29,17,02,15.20
2010,09,29,17,03,15.20
2010,09,29,17,04,15.30
2010,09,29,17,05,15.30
2010,09,29,17,06,15.30
2010,09,29,17,07,15.30
2010,09,29,17,08,15.30
2010,09,29,17,09,15.30
2010,09,29,17,10,15.30
2010,09,29,17,11,15.30
2010,09,29,17,12,15.30
2010,09,29,17,13,15.30
2010,09,29,17,14,15.30
